GW0254 Weather Reports


Display with metric or nautical units.
time (UTC)temp
F
wind
direction
speed
MPH
gust
MPH
rain 1hr
in
rain 24hr
in
rain mn
in
humidity
%
barometer
mb
20260902053047 46 37 1.0 4.0 0.00 0.00 0.00 56 1018.9
20260902051551 46 36 1.0 4.0 0.00 0.00 0.00 56 1018.8
20260902050104 47 0 1.0 4.0 0.00 0.00 0.00 56 1018.7
20260902044546 47 0 1.0 5.0 0.00 0.00 0.00 55 1018.5
20260902043045 48 60 1.0 3.0 0.00 0.00 0.00 54 1018.5
20260902041555 48 65 1.0 5.0 0.00 0.00 0.00 53 1018.6
20260902040049 48 314 2.0 11.0 0.00 0.00 0.00 52 1018.5
20260902034547 49 134 1.0 5.0 0.00 0.00 0.00 50 1018.3
20260902033047 49 193 1.0 5.0 0.00 0.00 0.00 49 1018.3
20260902031556 49 229 1.0 5.0 0.00 0.00 0.00 50 1018.1
20260902030051 50 347 1.0 7.0 0.00 0.00 0.00 50 1018.0
20260902024546 51 355 1.0 4.0 0.00 0.00 0.00 49 1018.1
20260902023051 51 11 1.0 4.0 0.00 0.00 0.00 47 1018.1
20260902021544 52 294 1.0 6.0 0.00 0.00 0.00 45 1017.9
20260902020055 53 267 1.0 12.0 0.00 0.00 0.00 44 1017.9
20260902014551 54 287 1.0 12.0 0.00 0.00 0.00 44 1018.0
20260902013047 55 282 2.0 8.0 0.00 0.00 0.00 44 1018.2
20260902011549 55 200 2.0 8.0 0.00 0.00 0.00 44 1018.1
20260902010105 56 186 1.0 11.0 0.00 0.00 0.00 42 1018.2
20260902004550 56 228 3.0 12.0 0.00 0.00 0.00 40 1018.4
20260902003047 57 155 2.0 11.0 0.00 0.00 0.00 40 1018.3
20260902001545 58 212 3.0 12.0 0.00 0.00 0.00 39 1018.3
20260902000048 58 178 3.0 14.0 0.00 0.00 0.00 37 1018.4
20260901234551 59 210 6.0 12.0 0.00 0.00 0.00 37 1018.5
20260901233046 59 180 4.0 15.0 0.00 0.00 0.00 37 1018.6
20260901231545 59 187 7.0 17.0 0.00 0.00 0.00 38 1018.6
20260901230044 60 180 3.0 20.0 0.00 0.00 0.00 36 1018.5
20260901224551 60 268 3.0 11.0 0.00 0.00 0.00 36 1018.7
20260901223054 60 265 3.0 11.0 0.00 0.00 0.00 35 1018.5
20260901221556 61 279 3.0 16.0 0.00 0.00 0.00 34 1018.6
20260901220044 62 199 5.0 14.0 0.00 0.00 0.00 33 1018.6
20260901214557 62 205 4.0 17.0 0.00 0.00 0.00 31 1018.5
20260901213102 63 188 3.0 17.0 0.00 0.00 0.00 30 1018.5
20260901211551 64 169 3.0 18.0 0.00 0.00 0.00 25 1018.6
20260901204543 64 186 4.0 14.0 0.00 0.00 0.00 26 1018.6
20260901203045 65 209 5.0 13.0 0.00 0.00 0.00 27 1018.9
20260901201550 62 184 4.0 15.0 0.00 0.00 0.00 33 1018.9
20260901200049 63 173 4.0 12.0 0.00 0.00 0.00 31 1018.9
20260901194552 63 177 4.0 9.0 0.00 0.00 0.00 33 1019.1
20260901193046 62 187 4.0 13.0 0.00 0.00 0.00 35 1019.3
20260901191555 62 209 5.0 16.0 0.00 0.00 0.00 34 1019.4
20260901190053 63 202 5.0 16.0 0.00 0.00 0.00 33 1019.6
20260901184605 63 197 3.0 14.0 0.00 0.00 0.00 33 1019.4
20260901183116 65 200 3.0 11.0 0.00 0.00 0.00 31 1019.3
20260901181547 63 208 5.0 15.0 0.00 0.00 0.00 31 1019.4
20260901180056 63 167 3.0 14.0 0.00 0.00 0.00 30 1019.3
20260901174556 63 182 4.0 11.0 0.00 0.00 0.00 31 1019.3
20260901173046 63 144 5.0 13.0 0.00 0.00 0.00 30 1019.1
20260901171547 62 169 4.0 10.0 0.00 0.00 0.00 31 1018.9
20260901170058 62 210 3.0 9.0 0.00 0.00 0.00 34 1018.9
20260901164554 61 209 2.0 15.0 0.00 0.00 0.00 35 1018.8
20260901163057 62 179 3.0 11.0 0.00 0.00 0.00 36 1018.9
20260901161619 61 150 3.0 10.0 0.00 0.00 0.00 39 1018.9
20260901154614 59 188 4.0 10.0 0.00 0.00 0.00 40 1018.7
20260901153106 59 209 4.0 13.0 0.00 0.00 0.00 41 1018.7
20260901151545 58 172 2.0 8.0 0.00 0.00 0.00 43 1018.7
20260901150107 57 172 1.0 10.0 0.00 0.00 0.00 44 1018.7
20260901144547 55 351 1.0 5.0 0.00 0.00 0.00 45 1018.4
20260901143045 53 0 1.0 4.0 0.00 0.00 0.00 45 1018.4
20260901141559 51 5 1.0 3.0 0.00 0.00 0.00 46 1018.3
20260901140056 50 5 2.0 4.0 0.00 0.00 0.00 46 1018.3
20260901134556 50 360 1.0 4.0 0.00 0.00 0.00 45 1018.3
20260901133054 50 360 2.0 5.0 0.00 0.00 0.00 45 1018.3
20260901131559 51 360 2.0 3.0 0.00 0.00 0.00 44 1018.2
20260901130053 51 360 2.0 4.0 0.00 0.00 0.00 44 1018.3
20260901124550 51 360 1.0 3.0 0.00 0.00 0.00 44 1018.4
20260901123049 51 360 1.0 5.0 0.00 0.00 0.00 42 1018.3
20260901121613 52 360 1.0 5.0 0.00 0.00 0.00 43 1018.4
20260901120107 52 360 1.0 5.0 0.00 0.00 0.00 42 1018.4
20260901114557 52 360 1.0 4.0 0.00 0.00 0.00 44 1018.6
20260901113055 52 360 1.0 5.0 0.00 0.00 0.00 46 1018.4
20260901111602 52 0 1.0 4.0 0.00 0.00 0.00 47 1018.4
20260901110052 52 360 1.0 3.0 0.00 0.00 0.00 50 1018.4
20260901104551 52 360 1.0 4.0 0.00 0.00 0.00 51 1018.5
20260901103057 52 360 0.0 4.0 0.00 0.00 0.00 52 1018.5
20260901101556 53 360 1.0 2.0 0.00 0.00 0.00 51 1018.5
20260901100050 53 360 0.0 5.0 0.00 0.00 0.00 50 1018.5
20260901094554 53 352 0.0 3.0 0.00 0.00 0.00 50 1018.8
20260901093049 53 352 1.0 5.0 0.00 0.00 0.00 49 1018.8
20260901091602 53 318 1.0 5.0 0.00 0.00 0.00 47 1018.7
20260901090059 54 0 1.0 3.0 0.00 0.00 0.00 46 1018.8
20260901084544 54 28 1.0 3.0 0.00 0.00 0.00 44 1018.8
20260901083045 54 28 1.0 4.0 0.00 0.00 0.00 43 1018.7
20260901081552 54 28 1.0 4.0 0.00 0.00 0.00 43 1018.8
20260901080100 54 28 1.0 3.0 0.00 0.00 0.00 44 1018.8
20260901074547 54 27 1.0 4.0 0.00 0.00 0.00 43 1018.9
20260901073044 54 28 2.0 4.0 0.00 0.00 0.00 43 1019.0
20260901071551 55 0 1.0 3.0 0.00 0.00 0.00 44 1018.9
20260901070052 55 28 1.0 3.0 0.00 0.00 0.00 44 1019.1
20260901064549 55 28 2.0 3.0 0.00 0.00 0.00 45 1019.1
20260901063058 55 28 1.0 4.0 0.00 0.00 0.00 45 1019.2
20260901061551 55 9 1.0 4.0 0.00 0.00 0.00 45 1019.1
20260901060054 55 9 2.0 4.0 0.00 0.00 0.00 46 1019.1
20260901054546 56 9 2.0 3.0 0.00 0.00 0.00 47 1019.3